Nashua, NH

9:05 PM EST on February 09, 2016 (GMT -0500)
Boire

Weather History for KASH - February, 2014

Change the Weather History Date:

Friday, February 21, 2014

  Actual Average Record
Temperature  
Mean Temperature 32 °F -  
Max Temperature 37 °F 39 °F 62 °F (1994)
Min Temperature 26 °F 18 °F -11 °F (1968)
Degree Days  
Heating Degree Days 34    
Moisture  
Dew Point 34 °F    
Average Humidity 99    
Maximum Humidity 100    
Minimum Humidity 93    
Precipitation  
Precipitation 0.92 in - - ()
Sea Level Pressure  
Sea Level Pressure 30.22 in    
Wind  
Wind Speed 1 mph (ENE)    
Max Wind Speed 8 mph    
Max Gust Speed -    
Visibility 2 miles    
Events Fog , Rain , Thunderstorm    
Averages and records for this station are not official NWS values.
T = Trace of Precipitation, MM = Missing Value Source: NWS Daily Summary

Daily Weather History Graph

Daily Weather History Graph

Search for Another Location

Airport or City:

Trip Planner

Search our weather history database for the weather conditions in past years. The results will help you decide how hot, cold, wet, or windy it might be!

Date:

Astronomy

Feb. 21, 2014 Rise Set
Actual Time 6:34 AM EST 5:25 PM EST
Civil Twilight 6:05 AM EST 5:54 PM EST
Nautical Twilight 5:32 AM EST 6:27 PM EST
Astronomical Twilight 5:00 AM EST 6:59 PM EST
Moon No Moon Rise 9:47 AM EST (2/21)
Length of Visible Light 11h 48m
Length of Day
10h 51m
Waning Gibbous, 61% of the Moon is Illuminated
Feb 21
Waning Gibbous
Feb 22
Last Quarter
Mar 1
New
Mar 8
First Quarter
Mar 16
Full

Hourly Weather History & Observations

Time (EST) Temp. Windchill Dew Point Humidity Pressure Visibility Wind Dir Wind Speed Gust Speed Precip Events Conditions
12:00 AM 33.8 °F - 32.0 °F 93% 30.16 in 3.0 mi Calm Calm - 0.00 in   Scattered Clouds
12:11 AM 33.8 °F - 32.0 °F 93% 30.15 in 2.5 mi Calm Calm - 0.01 in Rain Light Rain
12:22 AM 33.8 °F - 32.0 °F 93% 30.15 in 1.8 mi Calm Calm - 0.01 in Rain Light Rain
12:31 AM 33.8 °F - 32.0 °F 93% 30.14 in 2.0 mi Calm Calm - 0.01 in Rain Light Rain
12:51 AM 32.9 °F - 32.9 °F 100% 30.89 in 3.0 mi Calm Calm - 0.02 in   Partly Cloudy
1:51 AM 32.9 °F - 32.9 °F 100% 30.89 in 4.0 mi Calm Calm - 0.01 in   Scattered Clouds
2:18 AM 33.8 °F - 33.8 °F 100% 30.12 in 1.8 mi Calm Calm - 0.01 in Rain Light Rain
2:38 AM 33.8 °F - 33.8 °F 100% 30.12 in 1.0 mi Calm Calm - 0.02 in Rain Light Rain
2:51 AM 32.9 °F - 32.0 °F 96% 30.87 in 1.2 mi Calm Calm - 0.05 in Rain Rain
2:56 AM 33.8 °F - 32.0 °F 93% 30.12 in 0.8 mi Calm Calm - 0.00 in Rain Light Rain
3:05 AM 33.8 °F - 32.0 °F 93% 30.12 in 0.5 mi Calm Calm - 0.01 in Fog , Rain Light Rain
3:17 AM 33.8 °F - 33.8 °F 100% 30.12 in 0.8 mi Calm Calm - 0.02 in Rain Light Rain
3:25 AM 33.8 °F - 33.8 °F 100% 30.10 in 1.2 mi Calm Calm - 0.03 in Rain Light Rain
3:29 AM 33.8 °F - 32.0 °F 93% 30.10 in 2.0 mi Calm Calm - 0.04 in Rain Rain
3:35 AM 33.8 °F - 33.8 °F 100% 30.10 in 1.2 mi Calm Calm - 0.06 in Rain Rain
3:39 AM 33.8 °F - 33.8 °F 100% 30.09 in 1.0 mi Calm Calm - 0.07 in Rain Light Rain
3:51 AM 32.9 °F - 32.9 °F 100% 30.84 in 1.8 mi Calm Calm - 0.09 in Rain Light Rain
3:58 AM 33.8 °F - 33.8 °F 100% 30.09 in 3.0 mi Calm Calm - 0.01 in Rain Light Rain
4:05 AM 33.8 °F - 33.8 °F 100% 30.09 in 5.0 mi Calm Calm - 0.01 in Rain Light Rain
4:22 AM 33.8 °F - 33.8 °F 100% 30.08 in 5.0 mi Calm Calm - 0.03 in Rain Light Rain
4:29 AM 33.8 °F - 33.8 °F 100% 30.08 in 5.0 mi Calm Calm - 0.03 in Rain Light Rain
4:42 AM 33.8 °F - 33.8 °F 100% 30.12 in 5.0 mi Calm Calm - 0.06 in Rain Light Rain
4:51 AM 32.9 °F - 32.9 °F 100% 30.89 in 2.5 mi Calm Calm - 0.09 in Rain Rain
5:02 AM 33.8 °F - 33.8 °F 100% 30.11 in 2.0 mi Calm Calm - 0.02 in Rain Light Rain
5:10 AM 33.8 °F - 33.8 °F 100% 30.10 in 1.8 mi Calm Calm - 0.03 in Rain Light Rain
5:29 AM 33.8 °F - 33.8 °F 100% 30.10 in 1.2 mi Calm Calm - 0.07 in Rain Rain
5:32 AM 33.8 °F - 33.8 °F 100% 30.10 in 0.8 mi Calm Calm - 0.08 in Rain Rain
5:40 AM 33.8 °F 28.6 °F 33.8 °F 100% 30.08 in 0.8 mi SE 5.8 mph - 0.11 in Rain Rain
5:51 AM 32.9 °F - 32.9 °F 100% 30.86 in 1.0 mi Calm Calm - 0.25 in Rain Heavy Rain
5:55 AM 33.8 °F 30.8 °F 33.8 °F 100% 30.10 in 1.0 mi North 3.5 mph - 0.02 in Rain Heavy Rain
6:01 AM 33.8 °F - 33.8 °F 100% 30.11 in 1.8 mi Calm Calm - 0.03 in Rain Rain
6:04 AM 33.8 °F - 33.8 °F 100% 30.11 in 3.0 mi Calm Calm - 0.03 in Rain Light Rain
6:29 AM 33.8 °F - 33.8 °F 100% 30.11 in 9.0 mi Calm Calm - 0.03 in   Scattered Clouds
6:51 AM 32.9 °F - 32.9 °F 100% 30.87 in 3.0 mi Calm Calm - 0.04 in   Scattered Clouds
6:55 AM 33.8 °F - 33.8 °F 100% 30.11 in 2.5 mi Calm Calm - N/A   Mostly Cloudy
7:17 AM 33.8 °F - 32.0 °F 93% 30.11 in 1.2 mi Calm Calm - 0.00 in   Overcast
7:26 AM 33.8 °F - 33.8 °F 100% 30.11 in 1.0 mi Calm Calm - 0.00 in   Overcast
7:51 AM 32.9 °F - 32.9 °F 100% 30.86 in 1.0 mi Calm Calm - 0.01 in   Mist
7:56 AM 33.8 °F - 33.8 °F 100% 30.09 in 1.2 mi Calm Calm - 0.01 in   Mostly Cloudy
8:34 AM 33.8 °F - 33.8 °F 100% 30.08 in 1.0 mi Calm Calm - 0.02 in   Mist
8:51 AM 34.0 °F - 34.0 °F 100% 30.84 in 0.8 mi Calm Calm - 0.03 in   Mist
9:33 AM 35.6 °F - 33.8 °F 93% 30.07 in 0.5 mi Calm Calm - 0.03 in Fog Fog
9:51 AM 34.9 °F - 34.9 °F 100% 30.82 in 0.5 mi Calm Calm - 0.05 in Fog Fog
10:06 AM 35.6 °F - 35.6 °F 100% 30.05 in 0.5 mi Calm Calm - 0.01 in Fog Fog
10:17 AM 35.6 °F - 35.6 °F 100% 30.05 in 0.8 mi Calm Calm - 0.02 in   Mist
10:26 AM 35.6 °F - 35.6 °F 100% 30.05 in 1.0 mi Calm Calm - 0.03 in   Mist
10:51 AM 36.0 °F - 36.0 °F 100% 30.80 in 1.0 mi Calm Calm - 0.05 in   Mostly Cloudy
11:04 AM 35.6 °F 29.9 °F 35.6 °F 100% 30.03 in 1.0 mi East 6.9 mph - 0.01 in   Mostly Cloudy
11:31 AM 37.4 °F 32.8 °F 35.6 °F 93% 30.02 in 1.2 mi East 5.8 mph - 0.03 in   Mostly Cloudy
11:51 AM 36.9 °F 31.4 °F 36.9 °F 100% 30.74 in 1.2 mi East 6.9 mph - 0.05 in   Overcast
11:59 AM 37.4 °F 32.8 °F 37.4 °F 100% 29.99 in 1.5 mi East 5.8 mph - N/A   Mostly Cloudy
12:11 PM 37.4 °F - 37.4 °F 100% 29.98 in 2.5 mi Calm Calm - 0.01 in   Mostly Cloudy
12:19 PM 37.4 °F - 37.4 °F 100% 29.97 in 4.0 mi Calm Calm - 0.01 in   Mostly Cloudy
12:51 PM 36.9 °F 31.4 °F 36.9 °F 100% 30.70 in 6.0 mi East 6.9 mph - 0.03 in   Overcast
1:06 PM 37.4 °F - 37.4 °F 100% 29.93 in 3.0 mi Calm Calm - N/A   Overcast
1:13 PM 37.4 °F 32.8 °F 37.4 °F 100% 29.92 in 2.0 mi East 5.8 mph - N/A   Overcast
1:22 PM 37.4 °F 32.1 °F 37.4 °F 100% 29.91 in 1.8 mi ENE 6.9 mph - 0.01 in   Mostly Cloudy
1:38 PM 37.4 °F - 37.4 °F 100% 29.91 in 1.0 mi Calm Calm - 0.01 in Rain Light Rain
1:51 PM 37.9 °F 33.5 °F 36.9 °F 96% 30.65 in 2.5 mi Variable 5.8 mph - 0.02 in   Overcast
2:51 PM 37.9 °F - 36.9 °F 96% 30.60 in 2.0 mi Calm Calm - 0.02 in   Overcast
2:56 PM 37.4 °F - 37.4 °F 100% 29.84 in 1.0 mi Calm Calm - N/A   Mist
3:03 PM 37.4 °F - 37.4 °F 100% 29.82 in 1.0 mi Calm Calm - N/A   Mist
3:51 PM 37.9 °F - 36.9 °F 96% 30.56 in 1.0 mi Calm Calm - 0.01 in   Mist
4:19 PM 37.4 °F 33.8 °F 37.4 °F 100% 29.77 in 1.0 mi Variable 4.6 mph - 0.00 in   Mist
4:51 PM 36.9 °F - 36.9 °F 100% 30.49 in 0.2 mi Calm Calm - 0.01 in Fog Fog
5:32 PM 37.4 °F 32.1 °F 37.4 °F 100% 29.74 in 0.2 mi WNW 6.9 mph - 0.01 in Fog , Rain , Thunderstorm Thunderstorms and Rain
5:51 PM 36.9 °F - 36.9 °F 100% 30.45 in 1.0 mi Calm Calm - 0.08 in Rain Light Rain
6:20 PM 35.6 °F - 35.6 °F 100% 29.71 in 2.5 mi Calm Calm - 0.01 in   Overcast
6:51 PM 36.9 °F 30.7 °F 36.9 °F 100% 30.46 in 1.8 mi NW 8.1 mph - 0.01 in Rain Light Rain
7:51 PM 36.0 °F - 36.0 °F 100% 30.48 in 10.0 mi Calm Calm - 0.00 in   Overcast
8:51 PM 34.9 °F - 34.9 °F 100% 30.51 in 10.0 mi Calm Calm - N/A   Partly Cloudy
9:51 PM 34.9 °F - 34.9 °F 100% 30.53 in 10.0 mi Calm Calm - N/A   Clear
10:33 PM 30.2 °F - 30.2 °F 100% 29.80 in 1.8 mi Calm Calm - N/A   Clear
10:37 PM 30.2 °F - 30.2 °F 100% 29.80 in 3.0 mi Calm Calm - N/A   Clear
10:51 PM 30.0 °F - 30.0 °F 100% 30.56 in 2.5 mi Calm Calm - N/A   Clear
10:53 PM 28.4 °F - 28.4 °F 100% 29.81 in 1.2 mi Calm Calm - N/A   Clear
10:56 PM 28.4 °F - 28.4 °F 100% 29.81 in 0.5 mi Calm Calm - N/A Fog Light Freezing Fog
11:05 PM 28.4 °F - 28.4 °F 100% 29.81 in 0.2 mi Calm Calm - N/A Fog Light Freezing Fog
11:27 PM 26.6 °F - 26.6 °F 100% 29.83 in 0.5 mi Calm Calm - N/A Fog Light Freezing Fog
11:35 PM 26.6 °F - 26.6 °F 100% 29.83 in 0.2 mi Calm Calm - N/A Fog Light Freezing Fog
11:51 PM 27.1 °F - 27.1 °F 100% 30.59 in 0.2 mi Calm Calm - N/A Fog Light Freezing Fog